GALAXY 17 (G-17)

Last updated on Sat Aug 15 2026 00:02:57 GMT+0000 (Coordinated Universal Time)

1 31307U 07016B 26226.55106933 -.00000222 00000+0 00000+0 0 9993 2 31307 3.1143 79.1403 0003080 73.0771 284.1228 1.00271480 70386
UTC large
Height (km)
Speed (km/s)
/
Latitude / Longitude
Inclination (degrees)
Orbital Period (minutes)
Azimuth
Elevation
Range (km)
Doppler Factor

Next 0 passes for location: London (51.5072 / 0.1276)

No passes found over London.
GALAXY 17 (G-17)